Regional Weather Roundup
Issued by NWS

Home | Current Version | Previous Version | Text Only | Print | Product List | Glossary Off
Versions: 1 2 3 4 5 6 7 8 9 10 11 12 13 14 15 16 17 18 19 20 21 22 23 24 25 26 27 28 29 30 31 32 33 34 35 36 37 38 39 40 41 42 43 44 45 46 47 48 49 50

000
ASUS43 KIND 281609
RWRIN

WEATHER ROUNDUP FOR INDIANA
NATIONAL WEATHER SERVICE INDIANAPOLIS IN
1200 PM EDT TUE APR 28 2015

NOTE: "FAIR" INDICATES FEW OR NO CLOUDS BELOW 12,000 FEET WITH NO
SIGNIFICANT WEATHER AND/OR OBSTRUCTIONS TO VISIBILITY.

* - STATION DOES NOT REPORT WEATHER SUCH AS PRECIPITATION OR FOG.

+ - STATION NOT QUALITY CONTROLLED BY THE NATIONAL WEATHER SERVICE.
    USE DATA WITH CAUTION...ESPECIALLY DEWPOINT AND RELATIVE
    HUMIDITY OBSERVATIONS.

INZ001>003-010>013-019-020-281700-
NORTHWEST INDIANA

CITY           SKY/WX    TMP DP  RH WIND       PRES   REMARKS
GARY /AIRPORT/ SUNNY     50  36  57 N8        30.16S
KNOX *+        SUNNY     54  16  22 W5        30.14F
LA PORTE +     SUNNY     56  38  50 W7        30.14F
MICHIGAN CITY+ SUNNY     52  34  50 NW5       30.15F
MONTICELLO +   SUNNY     53  35  49 CALM      30.14F
VALPARAISO     SUNNY     55  37  50 W3        30.14F

$$

LMZ046-743>745-281700-
SOUTHERN LAKE MICHIGAN

STATION/POSITION TIME  TEMP    WIND        PRES    WAVE
                       AIR SEA DIR/SP/G            HT
                 (UTC) (F)     (DEG/KT/KT) (MB)    (FT)
BURNS HARBOR     1600   42     350/  6/  7 1022.0S
MICHIGAN CITY    1600   43     260/  5/  6   N/A
5NW MICH CITY    1600   41 46  290/  4/  6   N/A     1

$$

INZ004-005-014>016-021>024-281700-
NORTH CENTRAL INDIANA

CITY           SKY/WX    TMP DP  RH WIND       PRES   REMARKS
ELKHART        SUNNY     55  32  41 SW7       30.14F
GOSHEN         SUNNY     54  36  50 SW7       30.13F
LOGANSPORT +   MOSUNNY   54  34  47 SW3       30.14F
PERU/GRISSOM   SUNNY     54  36  50 NE5       30.13F HAZE
ROCHESTER +    SUNNY     57  34  41 SE3       30.15S
SOUTH BEND     MOSUNNY   57  35  43 NW6       30.15F
WARSAW +       MOSUNNY   54  36  50 NW5       30.14F

$$

INZ006>009-017-018-025>027-281700-
NORTHEAST INDIANA

CITY           SKY/WX    TMP DP  RH WIND       PRES   REMARKS
ANGOLA *+      SUNNY     55  39  54 W6        30.12F
AUBURN +       SUNNY     55  34  44 N3        30.14F
FORT WAYNE     MOSUNNY   54  34  46 CALM      30.15S
HUNTINGTON +   SUNNY     55  36  50 W3        30.14F

$$

INZ028-029-035-036-043>045-051>053-281700-
WEST CENTRAL INDIANA

CITY           SKY/WX    TMP DP  RH WIND       PRES   REMARKS
CRAWFORDSVL +  SUNNY     53  29  40 SE3       30.13F
GREENCASTLE +  SUNNY     54  32  43 E8        30.13F
LAFAYETTE      MOSUNNY   53  34  48 CALM      30.14F
TERRE HAUTE    SUNNY     55  35  47 E8        30.12F

$$

INZ030>032-037>040-046>048-054>057-064-065-281700-
CENTRAL INDIANA

CITY           SKY/WX    TMP DP  RH WIND       PRES   REMARKS
ANDERSON       MOSUNNY   54  30  40 NE6       30.15F
CP ATTERBURY + SUNNY     55  37  50 NE5       30.13F
COLUMBUS       SUNNY     55  36  47 E9        30.13F
FISHERS *+     SUNNY     54  39  58 E6        30.13F
FRANKFORT +    SUNNY     54  37  52 W3        30.16S
GREENWOOD *+   SUNNY     54  34  47 NE8       30.13F
INDIANAPOLIS   MOSUNNY   56  36  47 VRB5      30.12F
-EAGLE CREEK   SUNNY     55  35  47 E7        30.12F
KOKOMO *+      SUNNY     54  36  50 W3        30.14F
MARION +       SUNNY     53  33  47 N5        30.14F
MT COMFORT *+  SUNNY     55  28  35 E5        30.13F
SHELBYVILLE    SUNNY     57  37  47 E13       30.12F
ZIONSVILLE +   MOSUNNY   55  36  48 E5        30.14F

$$

INZ033-034-041-042-049-050-058-059-281700-
EAST CENTRAL INDIANA

CITY           SKY/WX    TMP DP  RH WIND       PRES   REMARKS
MUNCIE         MOSUNNY   53  36  52 E9        30.14F

$$

INZ060-061-067>069-081>083-085>088-281700-
SOUTHWEST INDIANA

CITY           SKY/WX    TMP DP  RH WIND       PRES   REMARKS
EVANSVILLE     SUNNY     57  37  47 NE8       30.10S
HUNTINGBURG *+ SUNNY     55  37  50 E12       30.09F
WASHINGTON +   SUNNY     56  33  41 E10       30.10F

$$

INZ062-063-066-070>080-084-089>092-281700-
SOUTH CENTRAL AND SOUTHEAST INDIANA

CITY           SKY/WX    TMP DP  RH WIND       PRES   REMARKS
BEDFORD +      SUNNY     55  36  47 N10G17    30.10
BLOOMINGTON    LGT RAIN  57  36  45 N10       30.11F
MADISON *+     SUNNY     55  32  41 E10G16    30.11F
NORTH VERNON + SUNNY     55  37  50 NE12G17   30.11F
SEYMOUR +      SUNNY     57  37  47 NE9       30.11F

$$




USA.gov is the U.S. government's official web portal to all federal, state and local government web resources and services.